Regional Weather Roundup
Issued by NWS Green Bay, WI

Home | Current Version | Previous Version | Graphics & Text | Print | Product List | Glossary Off
Versions: 1 2 3 4 5 6 7 8 9 10 11 12 13 14 15 16 17 18 19 20 21 22 23 24 25 26 27 28 29 30 31 32 33 34 35 36 37 38 39 40 41 42 43 44 45 46 47 48 49 50

000
ASUS43 KGRB 160310
RWRGRB

NORTH-CENTRAL AND NORTHEAST WISCONSIN REGIONAL WEATHER ROUNDUP
NATIONAL WEATHER SERVICE GREEN BAY WI
1000 PM CDT TUE APR 15 2014

WIZ005-009-010>012-018-019-160400-
NORTH CENTRAL WISCONSIN

CITY           SKY/WX    TMP DP  RH WIND       PRES   REMARKS
IRONWOOD       CLEAR     19   9  63 CALM      30.07S
MANITOWISH WTR CLEAR     19   4  53 CALM      30.09R
ARBOR VITAE    CLEAR     19   6  55 CALM      30.09R
EAGLE RIVER    CLEAR     17   6  61 E3        30.09R
LAND O LAKES   CLEAR     10   6  85 CALM      30.10R
RHINELANDER    CLEAR     17   2  51 CALM      30.09R
PHILLIPS       CLEAR     23  12  62 CALM      30.09R
ANTIGO         CLEAR     19  10  70 S3        30.11R
TOMAHAWK       CLEAR     18   9  69 CALM      30.09S
MERRILL        CLEAR     23  12  62 CALM      30.11S
$$

WIZ013-073-160400-
NORTHEAST WISCONSIN

CITY           SKY/WX    TMP DP  RH WIND       PRES   REMARKS
IRON MOUNTAIN  CLEAR     15   8  73 E5        30.12R WCI   8
MARINETTE      PTCLDY    27  19  74 CALM      30.16R
OCONTO         CLEAR     26  14  61 SW3       30.17R
$$

WIZ017-030-035>037-045-160400-
CENTRAL WISCONSIN

CITY           SKY/WX    TMP DP  RH WIND       PRES   REMARKS
MEDFORD        CLEAR     26  15  64 S3        30.09S
WAUSAU         CLEAR     25  13  60 S3        30.10S
MOSINEE        CLEAR     23  12  63 SE5       30.13R
MARSHFIELD     MOCLDY    27  16  63 SE3       30.11R
WISC RAPIDS    CLEAR     24  16  71 S5        30.15R
STEVENS POINT  CLEAR     19  16  88 CALM      30.15R
WAUPACA        CLEAR     27  19  74 CALM      30.17S
SHAWANO        CLEAR     29  15  55 CALM      30.16S
CLINTONVILLE   CLEAR     27  18  69 S3        30.16S
$$

WIZ038-039-048-051-160400-
FOX VALLEY

CITY           SKY/WX    TMP DP  RH WIND       PRES   REMARKS
NWS GREEN BAY  CLEAR     29  19  66 SW3       30.18R
APPLETON       PTCLDY    27  16  63 CALM      30.17R
OSHKOSH        CLEAR     26  19  74 CALM      30.17R
FOND DU LAC    CLEAR     27  21  78 CALM      30.18R
$$

WIZ022-050-052-160400-
EAST CENTRAL WISCONSIN

CITY           SKY/WX    TMP DP  RH WIND       PRES   REMARKS
STURGEON BAY   CLEAR     27  16  63 SW6       30.17R
MANITOWOC      PTCLDY    27  19  72 SW3       30.20R
SHEBOYGAN      CLEAR     25  20  81 CALM      30.19R
$$

LMZ563-521-522-541>543-160400-
LAKESHORE

STATION/POSITION TIME  TEMP    WIND        PRES    VSBY  WAVE
                       AIR SEA DIR/SP/G                  HT/PER
                 (UTC) (F)     (DEG/KT/KT) (MB)    (MI)  (FT/S)
SHEBOYGAN LKSHOR 0300   31     210/  9/ 10 1023.8R
KEWAUNEE LKSHORE 0300   29     240/  3/  6 1022.6R
TWO RIVERS CG    0300   29                   N/A
NORTHPORT PIER   0300   26     350/  2/  5 1021.7S
SISTER BAY LKSHO 0300   21        CALM       N/A
MENOMINEE LKSHOR 0300   28      80/  2/  4 1022.1R
$$



USA.gov is the U.S. government's official web portal to all federal, state and local government web resources and services.